Nashua, NH

10:17 PM EDT on April 29, 2017 (GMT -0400)
Boire

Weather History for KASH - January, 2014

Change the Weather History Date:

Friday, January 31, 2014

  Actual Average Record
Temperature  
Mean Temperature 28 °F -  
Max Temperature 39 °F 33 °F 60 °F (2013)
Min Temperature 16 °F 13 °F -15 °F (1962)
Degree Days  
Heating Degree Days 38    
Moisture  
Dew Point 14 °F    
Average Humidity 61    
Maximum Humidity 85    
Minimum Humidity 32    
Precipitation  
Precipitation 0.00 in - - ()
Sea Level Pressure  
Sea Level Pressure 30.70 in    
Wind  
Wind Speed 1 mph (WNW)    
Max Wind Speed 10 mph    
Max Gust Speed 16 mph    
Visibility 10 miles    
Events      
Averages and records for this station are not official NWS values.
T = Trace of Precipitation, MM = Missing Value Source: NWS Daily Summary

Daily Weather History Graph

Daily Weather History Graph

Search for Another Location

Airport or City:

Trip Planner

Search our weather history database for the weather conditions in past years. The results will help you decide how hot, cold, wet, or windy it might be!

Date:

Astronomy

Jan. 31, 2014 Rise Set
Actual Time 7:01 AM EST 4:57 PM EST
Civil Twilight 6:31 AM EST 5:27 PM EST
Nautical Twilight 5:57 AM EST 6:01 PM EST
Astronomical Twilight 5:24 AM EST 6:35 PM EST
Moon 7:06 AM EST (1/31) 6:21 PM EST (1/31)
Length of Visible Light 10h 56m
Length of Day
9h 56m
New Moon, 1% of the Moon is Illuminated
Jan 31
New Moon
Feb 6
First Quarter
Feb 14
Full
Feb 22
Last Quarter
Mar 1
New

Hourly Weather History & Observations

Time (EST) Temp. Windchill Dew Point Humidity Pressure Visibility Wind Dir Wind Speed Gust Speed Precip Events Conditions
12:51 AM 16.2 °F - 9.1 °F 74% 30.92 in 10.0 mi Calm Calm - N/A   Clear
1:51 AM 18.1 °F - 10.0 °F 71% 30.90 in 10.0 mi Calm Calm - N/A   Scattered Clouds
1:59 AM 17.6 °F - 10.4 °F 73% 30.13 in 10.0 mi Calm Calm - N/A   Mostly Cloudy
2:38 AM 19.4 °F - 12.2 °F 74% 30.11 in 10.0 mi Calm Calm - N/A   Scattered Clouds
2:51 AM 19.0 °F - 12.0 °F 74% 30.87 in 10.0 mi Calm Calm - N/A   Clear
3:25 AM 19.4 °F - 14.0 °F 80% 30.07 in 10.0 mi Calm Calm - N/A   Mostly Cloudy
3:51 AM 20.1 °F - 13.1 °F 74% 30.85 in 10.0 mi Calm Calm - N/A   Mostly Cloudy
4:09 AM 19.4 °F - 14.0 °F 80% 30.06 in 10.0 mi Calm Calm - N/A   Scattered Clouds
4:33 AM 19.4 °F - 14.0 °F 80% 30.06 in 10.0 mi Calm Calm - N/A   Mostly Cloudy
4:51 AM 20.1 °F - 15.1 °F 81% 30.83 in 10.0 mi Calm Calm - N/A   Mostly Cloudy
5:08 AM 21.2 °F - 15.8 °F 80% 30.05 in 10.0 mi Calm Calm - N/A   Scattered Clouds
5:51 AM 21.0 °F - 16.2 °F 81% 30.80 in 10.0 mi Calm Calm - N/A   Clear
6:51 AM 21.0 °F - 17.1 °F 85% 30.82 in 10.0 mi Calm Calm - N/A   Mostly Cloudy
7:51 AM 20.1 °F - 16.2 °F 85% 30.83 in 10.0 mi Calm Calm - N/A   Scattered Clouds
8:51 AM 28.0 °F - 7.2 °F 41% 30.82 in 10.0 mi Calm Calm - N/A   Clear
9:51 AM 30.0 °F - 8.1 °F 40% 30.84 in 10.0 mi Calm Calm - N/A   Clear
10:51 AM 32.0 °F - 8.1 °F 37% 30.84 in 10.0 mi Calm Calm - N/A   Clear
11:51 AM 36.0 °F 31.1 °F 9.1 °F 33% 30.81 in 10.0 mi Variable 5.8 mph - N/A   Clear
12:51 PM 37.9 °F 34.4 °F 11.1 °F 33% 30.79 in 10.0 mi West 4.6 mph - N/A   Clear
1:51 PM 39.9 °F 35.1 °F 12.0 °F 32% 30.78 in 10.0 mi WNW 6.9 mph 11.5 mph N/A   Clear
2:51 PM 38.8 °F 32.1 °F 16.2 °F 40% 30.82 in 10.0 mi WNW 10.4 mph 16.1 mph N/A   Clear
3:51 PM 37.9 °F 34.4 °F 16.2 °F 41% 30.82 in 10.0 mi West 4.6 mph - N/A   Clear
4:51 PM 37.9 °F - 17.1 °F 43% 30.81 in 10.0 mi Calm Calm - N/A   Clear
5:51 PM 36.0 °F - 17.1 °F 46% 30.85 in 10.0 mi Calm Calm - N/A   Mostly Cloudy
6:51 PM 34.0 °F 29.8 °F 19.0 °F 54% 30.89 in 10.0 mi WNW 4.6 mph - N/A   Scattered Clouds
7:51 PM 34.9 °F - 17.1 °F 48% 30.92 in 10.0 mi Calm Calm - N/A   Scattered Clouds
8:51 PM 31.1 °F - 19.0 °F 61% 30.92 in 10.0 mi Calm Calm - N/A   Clear
9:51 PM 32.0 °F - 19.0 °F 59% 30.94 in 10.0 mi Calm Calm - N/A   Clear
10:51 PM 34.0 °F - 18.1 °F 52% 30.95 in 10.0 mi Calm Calm - N/A   Clear
11:51 PM 30.0 °F - 21.0 °F 69% 30.96 in 10.0 mi Calm Calm - N/A   Clear